Rutland, VT

2:13 AM EDT on August 20, 2017 (GMT -0400)
Rutland State

Weather History for KRUT - November, 2010

Change the Weather History Date:

Monday, November 29, 2010

  Actual Average Record
Temperature  
Mean Temperature 33 °F -  
Max Temperature 42 °F - 65 °F (1990)
Min Temperature 24 °F - 7 °F (2013)
Degree Days  
Heating Degree Days 32    
Month to date heating degree days  
Since 1 July heating degree days  
Cooling Degree Days 0    
Month to date cooling degree days  
Year to date cooling degree days  
Moisture  
Dew Point 24 °F    
Average Humidity 69    
Maximum Humidity 86    
Minimum Humidity 49    
Precipitation  
Precipitation 0.00 in - 1.10 in (1954)
Month to date precipitation  
Year to date precipitation  
Sea Level Pressure  
Sea Level Pressure 30.46 in    
Wind  
Wind Speed 3 mph (SE)    
Max Wind Speed 12 mph    
Max Gust Speed -    
Visibility 10 miles    
Events      
T = Trace of Precipitation, MM = Missing Value Source: NWS Daily Summary

Daily Weather History Graph

Daily Weather History Graph

Search for Another Location

Airport or City:

Trip Planner

Search our weather history database for the weather conditions in past years. The results will help you decide how hot, cold, wet, or windy it might be!

Date:

Astronomy

Nov. 29, 2010 Rise Set
Actual Time 7:02 AM EST 4:17 PM EST
Civil Twilight 6:30 AM EST 4:49 PM EST
Nautical Twilight 5:55 AM EST 5:24 PM EST
Astronomical Twilight 5:20 AM EST 5:59 PM EST
Moon No Moon Rise 12:27 PM EST (11/29)
Length of Visible Light 10h 18m
Length of Day
9h 14m
Last Quarter, 40% of the Moon is Illuminated
Nov 29
Last Quarter
Dec 5
New
Dec 13
First Quarter
Dec 21
Full
Dec 27
Last Quarter

Hourly Weather History & Observations

Time (EST) Temp. Windchill Dew Point Humidity Pressure Visibility Wind Dir Wind Speed Gust Speed Precip Events Conditions
12:15 AM 30.2 °F - 24.8 °F 80% 30.38 in 10.0 mi Calm Calm - N/A   Scattered Clouds
12:35 AM 28.4 °F - 24.8 °F 86% 30.38 in 10.0 mi Calm Calm - N/A   Scattered Clouds
12:55 AM 28.4 °F - 24.8 °F 86% 30.39 in 10.0 mi Calm Calm - N/A   Clear
1:15 AM 28.4 °F - 24.8 °F 86% 30.40 in 10.0 mi Calm Calm - N/A   Clear
1:35 AM 26.6 °F 20.0 °F 23.0 °F 86% 30.41 in 10.0 mi ESE 5.8 mph - N/A   Mostly Cloudy
1:55 AM 26.6 °F - 23.0 °F 86% 30.42 in 10.0 mi Calm Calm - N/A   Mostly Cloudy
2:15 AM 26.6 °F - 23.0 °F 86% 30.42 in 10.0 mi Calm Calm - N/A   Partly Cloudy
2:35 AM 26.6 °F - 23.0 °F 86% 30.42 in 10.0 mi Calm Calm - N/A   Clear
2:55 AM 26.6 °F 21.2 °F 23.0 °F 86% 30.43 in 10.0 mi SE 4.6 mph - N/A   Clear
3:15 AM 26.6 °F 18.2 °F 23.0 °F 86% 30.43 in 10.0 mi ESE 8.1 mph - N/A   Clear
3:35 AM 26.6 °F 22.6 °F 21.2 °F 80% 30.42 in 10.0 mi NE 3.5 mph - N/A   Clear
3:55 AM 26.6 °F - 21.2 °F 80% 30.44 in 10.0 mi Calm Calm - N/A   Clear
4:15 AM 26.6 °F 21.2 °F 23.0 °F 86% 30.44 in 10.0 mi East 4.6 mph - N/A   Clear
4:35 AM 26.6 °F 20.0 °F 21.2 °F 80% 30.45 in 10.0 mi SE 5.8 mph - N/A   Clear
4:55 AM 26.6 °F 18.2 °F 21.2 °F 80% 30.46 in 10.0 mi SE 8.1 mph - N/A   Clear
5:15 AM 26.6 °F 21.2 °F 21.2 °F 80% 30.47 in 10.0 mi SE 4.6 mph - N/A   Clear
5:35 AM 24.8 °F 14.6 °F 21.2 °F 86% 30.47 in 10.0 mi SE 10.4 mph - N/A   Clear
6:55 AM 24.8 °F 16.9 °F 21.2 °F 86% 30.49 in 10.0 mi SE 6.9 mph - N/A   Clear
7:15 AM 24.8 °F 14.6 °F 19.4 °F 80% 30.50 in 10.0 mi SE 10.4 mph - N/A   Clear
7:35 AM 24.8 °F 15.3 °F 19.4 °F 80% 30.50 in 10.0 mi ESE 9.2 mph - N/A   Clear
8:35 AM 26.6 °F 17.5 °F 21.2 °F 80% 30.51 in 10.0 mi ESE 9.2 mph - N/A   Clear
8:55 AM 28.4 °F 19.1 °F 21.2 °F 74% 30.51 in 10.0 mi SSE 10.4 mph - N/A   Clear
9:15 AM 30.2 °F 26.7 °F 23.0 °F 75% 30.52 in 10.0 mi SSE 3.5 mph - N/A   Clear
9:35 AM 30.2 °F 26.7 °F 24.8 °F 80% 30.53 in 10.0 mi SE 3.5 mph - N/A   Clear
9:55 AM 33.8 °F 30.8 °F 24.8 °F 70% 30.52 in 10.0 mi SE 3.5 mph - N/A   Clear
10:15 AM 35.6 °F - 26.6 °F 70% 30.52 in 10.0 mi Calm Calm - N/A   Clear
10:35 AM 37.4 °F - 26.6 °F 65% 30.52 in 10.0 mi Calm Calm - N/A   Clear
10:55 AM 37.4 °F - 26.6 °F 65% 30.51 in 10.0 mi Calm Calm - N/A   Clear
11:15 AM 37.4 °F - 26.6 °F 65% 30.49 in 10.0 mi Calm Calm - N/A   Clear
11:35 AM 39.2 °F - 24.8 °F 56% 30.49 in 10.0 mi Calm Calm - N/A   Clear
11:55 AM 39.2 °F 35.9 °F 24.8 °F 56% 30.48 in 10.0 mi SSW 4.6 mph - N/A   Clear
12:15 PM 39.2 °F - 24.8 °F 56% 30.48 in 10.0 mi Calm Calm - N/A   Clear
12:35 PM 41.0 °F 39.0 °F 24.8 °F 53% 30.47 in 10.0 mi ENE 3.5 mph - N/A   Clear
12:55 PM 42.8 °F - 24.8 °F 49% 30.46 in 10.0 mi Calm Calm - N/A   Clear
1:15 PM 42.8 °F 41.1 °F 24.8 °F 49% 30.45 in 10.0 mi East 3.5 mph - N/A   Clear
1:35 PM 42.8 °F - 24.8 °F 49% 30.45 in 10.0 mi Calm Calm - N/A   Clear
1:55 PM 42.8 °F - 26.6 °F 53% 30.45 in 10.0 mi Calm Calm - N/A   Clear
2:15 PM 42.8 °F 41.1 °F 26.6 °F 53% 30.45 in 10.0 mi ESE 3.5 mph - N/A   Clear
2:35 PM 42.8 °F - 24.8 °F 49% 30.45 in 10.0 mi Calm Calm - N/A   Clear
3:15 PM 42.8 °F - 26.6 °F 53% 30.45 in 10.0 mi Calm Calm - N/A   Clear
3:35 PM 42.8 °F - 26.6 °F 53% 30.45 in 10.0 mi Calm Calm - N/A   Clear
3:55 PM 41.0 °F - 26.6 °F 57% 30.45 in 10.0 mi Calm Calm - N/A   Clear
4:35 PM 39.2 °F 35.9 °F 26.6 °F 61% 30.47 in 10.0 mi East 4.6 mph - N/A   Clear
4:55 PM 37.4 °F 31.4 °F 26.6 °F 65% 30.46 in 10.0 mi ESE 8.1 mph - N/A   Clear
5:15 PM 37.4 °F 29.8 °F 24.8 °F 60% 30.46 in 10.0 mi ESE 11.5 mph - N/A   Clear
5:35 PM 37.4 °F 30.8 °F 24.8 °F 60% 30.46 in 10.0 mi SE 9.2 mph - N/A   Clear
5:55 PM 35.6 °F 28.6 °F 24.8 °F 65% 30.46 in 10.0 mi ESE 9.2 mph - N/A   Clear
6:15 PM 35.6 °F 29.2 °F 24.8 °F 65% 30.46 in 10.0 mi SE 8.1 mph - N/A   Clear
6:35 PM 35.6 °F 29.2 °F 24.8 °F 65% 30.46 in 10.0 mi SSE 8.1 mph - N/A   Clear
6:55 PM 37.4 °F 32.8 °F 24.8 °F 60% 30.46 in 10.0 mi SSE 5.8 mph - N/A   Clear
7:15 PM 35.6 °F 29.9 °F 24.8 °F 65% 30.45 in 10.0 mi SE 6.9 mph - N/A   Clear
7:35 PM 35.6 °F 29.9 °F 24.8 °F 65% 30.45 in 10.0 mi ESE 6.9 mph - N/A   Clear
7:55 PM 35.6 °F 28.6 °F 24.8 °F 65% 30.45 in 10.0 mi SE 9.2 mph - N/A   Clear
8:15 PM 35.6 °F 29.9 °F 24.8 °F 65% 30.46 in 10.0 mi SSE 6.9 mph - N/A   Clear
8:35 PM 37.4 °F 31.4 °F 24.8 °F 60% 30.46 in 10.0 mi ESE 8.1 mph - N/A   Clear
8:55 PM 35.6 °F 29.2 °F 24.8 °F 65% 30.45 in 10.0 mi SE 8.1 mph - N/A   Clear
9:15 PM 35.6 °F 28.6 °F 24.8 °F 65% 30.44 in 10.0 mi SE 9.2 mph - N/A   Clear
9:35 PM 37.4 °F 30.3 °F 24.8 °F 60% 30.44 in 10.0 mi SSE 10.4 mph - N/A   Clear
9:55 PM 37.4 °F 32.1 °F 24.8 °F 60% 30.45 in 10.0 mi SSE 6.9 mph - N/A   Clear
10:15 PM 35.6 °F 28.0 °F 24.8 °F 65% 30.45 in 10.0 mi SE 10.4 mph - N/A   Clear
10:35 PM 35.6 °F 27.5 °F 24.8 °F 65% 30.44 in 10.0 mi ESE 11.5 mph - N/A   Clear
10:55 PM 35.6 °F 29.2 °F 24.8 °F 65% 30.44 in 10.0 mi ESE 8.1 mph - N/A   Clear
11:15 PM 35.6 °F 28.6 °F 24.8 °F 65% 30.44 in 10.0 mi SE 9.2 mph - N/A   Clear
11:35 PM 35.6 °F 27.1 °F 24.8 °F 65% 30.44 in 10.0 mi ESE 12.7 mph - N/A   Clear
11:55 PM 33.8 °F 25.8 °F 24.8 °F 70% 30.44 in 10.0 mi SE 10.4 mph - N/A   Clear